RH
75 76 75 71 68 74 77 56 96 63 81 99 100 95 76 63 47 46 62 82 80 91 77 100 100 85 70 77 77 100 92 100 92 66 46 49 91 99 99 97 94 91 97 85
70 76 74 78 73 72 56 91 65 53 79 97 96 68 54 47 54 52 87 100 92 68 82 96 74 61 61 75 75 97 82 98 90 69 52 76 88 75 81 100 100 94 98 92
70 71 75 75 78 75 67 93 94 69 86 54 61 56 60 63 40 41 37 88 83 93 78 63 80 53 39 58 57 60 60 91 81 68 49 63 76 62 50 84 91 87 88 82
74 75 73 75 77 80 82 94 85 47 89 89 70 54 48 44 41 31 39 54 54 64 92 69 60 47 43 37 54 49 54 87 79 70 58 47 45 43 39 44 51 78 66 75
80 77 78 79 78 79 98 98 82 55 58 45 49 72 84 67 51 58 54 53 41 54 85 75 79 47 46 50 53 62 51 82 62 72 43 36 47 34 31 33 36 37 36 41
79 80 81 80 80 81 97 96 70 82 70 63 66 64 53 58 47 51 42 69 94 96 81 76 92 92 67 53 59 58 56 62 66 66 36 37 61 53 30 26 23 26 40 32
73 80 82 82 82 82 82 77 85 100 88 70 56 43 44 53 54 71 55 58 60 53 53 48 46 43 39 42 40 40 81 76 67 73 54 86 36 19 18 21 20 21 20 19
75 79 80 82 83 82 94 87 91 88 87 53 47 43 40 42 57 65 57 53 45 45 61 66 63 56 50 39 32 32 36 65 79 82 67 46 36 32 57 63 55 36 72 72
80 79 78 80 79 78 92 96 90 92 94 68 42 61 86 89 81 82 60 39 37 42 64 72 73 56 39 33 22 16 41 59 79 86 90 70 68 42 55 60 81 62 72 84
77 77 78 79 77 78 91 98 86 98 95 58 55 69 72 85 77 63 49 49 51 48 75 81 72 63 40 52 50 52 73 86 90 96 95 76 52 37 39 93 81 82 80 91
75 77 81 82 79 82 94 96 88 92 99 61 48 53 57 61 80 72 60 60 58 73 86 77 66 83 82 88 81 81 69 68 91 66 78 95 60 36 55 67 70 77 78 91
76 77 81 81 79 82 74 92 92 86 99 77 61 52 45 47 63 62 77 84 76 83 77 87 81 86 63 54 68 41 48 50 52 61 73 71 83 81 62 62 64 70 82 94
77 76 72 73 81 81 78 95 95 98 94 61 56 56 41 40 43 43 52 53 65 60 50 66 68 58 40 44 40 40 28 22 53 41 31 33 77 66 46 59 44 55 64 95
76 73 72 77 80 83 70 81 89 78 70 85 59 36 44 32 36 41 41 47 65 65 55 65 67 54 32 33 33 30 28 26 26 30 24 24 24 33 33 30 32 49 62 94
79 78 78 81 78 78 82 84 84 73 96 98 78 43 35 34 38 37 38 47 55 63 69 67 59 37 36 31 31 30 20 29 51 55 37 36 29 30 30 30 28 62 74 91
83 86 86 85 83 80 83 100 82 71 73 95 79 42 43 39 40 41 44 48 51 45 51 55 36 34 42 52 45 27 23 22 23 27 24 26 31 30 19 22 23 35 60 66
79 82 82 82 84 86 88 92 88 70 81 88 77 63 37 33 38 47 53 50 53 59 62 58 44 37 50 67 59 38 34 34 35 35 36 31 19 21 18 18 20 26 37 59
75 74 71 70 71 81 81 64 72 75 77 66 78 68 61 38 55 66 50 66 62 58 57 49 43 38 41 60 46 54 50 48 47 42 42 39 31 28 18 18 19 24 26 46
74 76 75 67 64 92 70 76 75 66 79 90 70 63 84 58 51 55 53 54 70 44 57 50 47 49 59 80 79 71 76 91 93 87 72 52 42 35 30 23 21 26 28 30
72 65 73 100 72 70 68 68 96 91 74 71 69 52 70 44 62 70 56 67 64 66 54 39 48 62 70 85 99 99 98 79 88 74 79 63 50 43 37 34 26 27 28 33
51 85 82 62 67 58 71 97 86 71 65 52 42 39 51 58 62 63 59 72 66 75 74 55 66 91 77 96 100 85 75 73 76 67 52 55 60 55 56 50 35 36 35 62
66 63 52 54 67 73 76 72 54 54 51 40 43 57 38 48 50 63 67 66 62 63 56 68 86 80 77 74 89 80 85 80 77 64 70 66 69 70 71 70 77 91 92 96
57 71 57 64 70 79 74 67 44 58 41 40 41 61 65 58 57 73 71 77 70 53 70 76 84 77 65 66 72 74 72 78 79 82 76 77 79 82 88 87 90 97 98 100
61 72 76 69 75 59 45 44 57 56 49 54 57 70 76 74 84 77 84 63 56 67 76 71 84 64 75 64 71 71 83 92 94 99 96 97 98 98 100 100 100 98 95 99
54 49 70 58 45 46 52 56 55 49 56 68 76 72 72 86 93 67 60 67 66 58 70 94 72 60 62 72 69 72 77 93 93 95 99 100 100 100 100 100 100 99 98 97
48 44 57 58 67 92 92 82 76 61 73 73 68 71 81 87 68 66 65 55 60 91 88 78 66 67 70 72 72 80 82 80 84 90 91 98 100 100 100 100 100 100 100 100
46 65 60 68 68 83 84 67 66 58 80 94 67 79 72 68 76 68 58 78 93 85 84 79 67 67 72 72 78 86 70 69 77 86 94 92 88 84 98 94 99 100 99 100
Wind_Speed
16 15 15 13 10 7 5 5 4 7 9 5 3 8 6 5 14 11 13 9 14 15 15 7 5 9 10 10 5 4 5 2 7 16 14 17 7 5 3 4 6 2 2 6
17 16 14 14 12 11 7 4 9 7 7 6 9 11 18 16 15 15 5 4 8 7 7 7 12 12 8 15 11 8 7 5 6 12 4 6 4 6 2 4 3 1 4 5
19 18 16 15 15 14 9 4 4 7 8 10 15 16 17 18 19 19 19 8 10 8 13 15 9 11 6 10 11 11 6 5 8 11 10 4 10 15 9 7 2 4 8 21
21 20 19 17 16 16 8 5 7 9 6 10 15 18 17 18 18 16 13 9 16 20 12 17 20 20 19 12 13 11 7 7 12 12 12 14 18 21 18 14 13 12 19 16
23 23 21 20 18 16 8 5 5 9 13 18 19 14 8 14 19 16 20 20 19 16 14 18 15 15 17 11 10 13 14 5 8 10 15 19 20 19 20 20 18 18 22 27
25 25 24 23 21 18 6 2 11 8 9 15 15 15 16 17 16 12 20 12 7 4 10 6 6 10 12 7 7 7 7 6 9 16 18 21 16 13 19 23 22 22 23 22
22 24 24 24 25 22 10 6 6 5 10 12 14 18 18 20 20 19 11 10 11 3 11 9 7 16 13 15 15 13 8 10 9 12 17 19 18 20 24 23 21 18 24 21
19 19 21 24 24 25 11 9 6 5 12 12 18 20 19 20 9 14 11 9 10 3 4 6 6 8 11 16 19 18 18 15 10 10 16 19 25 16 12 16 23 17 15 20
17 14 17 21 22 24 12 8 8 4 6 14 21 14 5 10 8 12 13 11 5 7 7 5 5 8 15 11 13 13 3 6 9 14 12 15 5 14 14 16 19 19 19 19
11 7 9 13 17 21 10 4 14 4 4 13 14 8 5 3 9 6 5 7 4 4 5 7 11 14 17 18 19 13 3 3 7 10 8 5 6 14 14 8 9 21 20 20
10 3 3 4 6 16 12 1 7 8 2 12 9 12 11 7 6 6 4 2 5 4 4 4 5 4 2 3 3 4 5 3 2 4 5 4 3 7 6 8 12 17 20 21
9 7 6 9 13 16 11 2 2 7 7 4 7 10 12 9 7 5 3 1 3 3 2 2 4 4 2 5 2 6 1 3 2 0 3 9 4 4 6 8 11 14 18 22
11 7 3 2 14 16 6 3 2 3 4 5 8 10 12 12 8 3 3 1 5 3 4 2 3 4 4 5 3 7 5 1 2 3 5 11 7 4 9 10 8 12 14 19
8 7 6 7 14 12 5 3 4 5 1 4 5 4 6 3 6 8 6 5 3 4 7 4 3 4 7 7 8 8 8 9 9 9 9 8 5 4 7 12 10 7 12 16
11 9 8 14 12 6 4 2 4 3 1 3 3 5 8 5 6 7 8 7 7 4 4 4 6 7 7 7 8 8 11 7 6 10 11 7 6 6 11 9 12 3 7 15
15 16 14 14 9 2 2 0 4 6 4 4 2 2 6 8 7 8 6 6 7 7 7 5 6 9 7 5 10 14 15 16 15 13 15 15 9 8 11 12 7 4 5 7
13 11 7 2 3 2 2 3 3 6 6 3 4 2 4 4 4 4 4 6 5 5 5 5 9 9 6 4 10 16 16 19 19 20 20 17 15 11 7 10 6 7 4 5
6 8 10 10 9 1 2 4 6 8 4 3 4 2 5 7 4 3 3 2 2 3 4 5 7 7 7 7 10 16 18 19 19 18 20 21 18 18 10 11 10 7 10 6
12 12 11 4 1 2 3 6 12 4 3 2 3 4 3 7 2 0 1 2 3 3 6 8 4 6 2 10 13 17 18 14 18 21 19 20 19 16 12 13 10 7 7 6
8 5 2 2 2 2 8 2 2 1 3 4 4 5 1 3 1 1 2 1 2 3 3 2 3 3 7 10 9 9 11 14 16 14 10 12 12 12 13 13 9 8 8 8
2 3 1 1 4 4 2 2 2 3 4 4 4 4 1 0 2 2 0 1 2 3 1 2 3 2 4 5 7 10 14 15 18 16 9 3 7 8 11 12 9 5 7 7
6 6 5 2 2 3 4 3 2 4 2 3 3 3 4 3 1 2 1 2 3 3 0 3 2 3 6 6 7 10 12 15 15 16 17 16 14 10 6 8 8 10 9 10
6 4 2 3 2 3 4 4 4 2 1 2 3 1 2 1 0 2 2 4 4 2 3 3 4 6 4 6 7 9 12 14 15 15 14 13 12 12 10 6 5 7 6 8
3 3 4 4 4 5 3 7 4 3 3 5 5 3 2 1 2 3 4 3 3 4 4 2 6 4 6 7 6 7 8 10 11 10 10 9 7 7 7 6 4 5 6 7
4 3 4 5 6 2 4 5 6 6 5 4 3 3 3 3 3 4 4 4 5 5 2 4 3 6 7 6 7 8 7 6 7 6 6 5 4 5 6 5 5 6 7 8
4 5 5 6 6 3 3 5 6 6 4 4 4 3 3 5 4 5 6 4 2 3 4 3 3 6 6 5 7 7 6 5 5 4 4 4 3 3 2 3 4 4 5 5
5 3 4 5 7 6 5 6 7 5 3 3 3 3 5 2 4 3 2 3 5 5 4 3 4 4 5 4 4 3 7 7 5 3 4 3 5 1 2 4 3 3 3 4
Wind_Direction
266 265 256 254 251 246 240 248 251 140 141 196 198 241 239 281 262 231 226 240 247 246 267 255 244 233 223 177 151 212 163 195 263 294 303 288 43 75 55 62 326 266 239 273
273 271 255 253 240 213 264 229 246 200 189 230 217 250 257 257 251 258 216 267 222 212 246 254 231 232 215 189 198 193 170 171 288 282 205 63 336 311 6 169 189 11 310 286
266 260 258 247 239 224 236 270 247 212 207 239 253 261 256 250 250 255 269 207 233 236 242 236 263 266 256 188 218 170 174 211 221 249 271 321 278 287 275 187 245 295 250 292
260 255 250 244 239 222 214 219 234 248 218 232 247 255 257 269 266 244 239 265 267 256 261 258 253 255 255 235 214 188 221 233 223 256 273 280 279 286 307 313 273 244 274 250
257 251 244 240 230 222 218 212 217 240 249 265 261 231 236 254 261 270 274 276 284 297 281 267 264 278 260 250 207 225 217 274 264 273 277 270 268 276 277 271 271 275 273 265
258 247 238 234 226 209 217 196 271 275 255 250 258 258 253 253 256 275 266 220 246 250 281 283 301 306 295 267 269 284 292 289 297 285 290 295 288 274 273 273 264 265 261 272
274 248 236 227 222 212 210 204 204 232 243 237 252 263 263 273 294 288 249 268 256 154 210 221 266 254 256 249 257 249 233 246 259 272 282 268 268 269 269 276 280 269 254 269
288 259 239 227 221 215 215 219 216 229 262 269 271 264 268 283 274 262 238 244 251 236 294 263 258 232 237 245 244 241 232 235 247 251 256 280 285 318 344 317 291 301 354 332
305 262 241 226 217 215 207 215 219 220 261 248 258 271 286 287 254 245 240 250 265 265 261 255 258 264 281 268 279 278 33 290 242 246 248 269 22 342 338 295 267 10 344 332
318 275 242 220 217 212 197 187 208 237 220 257 272 275 299 299 244 254 246 213 212 222 239 248 251 261 266 270 275 286 355 325 265 270 241 203 7 342 331 226 335 328 334 321
358 62 80 224 210 207 189 174 195 213 261 250 257 267 268 265 277 273 353 267 216 185 231 260 258 292 337 295 278 145 231 256 9 306 292 11 313 347 17 299 317 325 328 313
36 54 110 134 153 171 187 126 298 196 243 323 323 274 278 273 224 333 26 249 142 228 284 59 308 275 285 329 8 333 92 134 356 260 302 275 158 220 277 303 312 328 325 319
42 65 92 126 124 129 147 124 131 179 242 269 247 242 246 236 255 295 301 10 5 338 321 267 235 283 294 317 56 350 330 49 223 301 302 292 135 216 281 257 323 332 338 322
28 43 72 118 138 125 133 137 170 263 294 265 286 204 230 210 220 219 242 278 175 251 278 256 239 279 294 317 312 319 318 304 298 283 303 301 2 273 339 316 316 327 352 338
47 48 77 125 126 118 93 117 199 292 21 285 192 195 222 199 218 230 231 232 243 255 272 267 272 269 292 296 297 288 291 358 315 283 262 303 297 321 314 297 311 75 12 346
52 56 71 102 107 101 177 234 220 228 208 299 300 3 164 199 217 232 237 241 237 239 251 263 260 272 304 291 285 295 301 299 307 302 305 297 278 261 280 295 290 225 105 32
47 54 64 78 245 246 352 12 330 292 246 275 284 225 197 201 193 233 241 252 253 276 283 264 270 277 281 282 271 280 333 342 335 332 326 307 294 275 276 287 274 273 146 185
349 339 335 330 323 148 234 30 341 340 270 268 283 142 228 190 215 227 222 230 227 241 244 263 274 285 274 254 331 342 332 322 305 303 299 292 297 307 271 274 284 266 282 193
294 289 300 282 37 359 24 336 305 259 270 281 269 294 4 311 233 82 346 357 263 269 261 257 284 253 311 3 344 342 332 317 299 297 288 279 270 276 292 277 260 273 273 254
310 269 183 349 7 348 278 212 329 278 239 224 255 279 244 279 99 95 302 60 281 278 226 274 273 85 26 11 344 305 311 321 323 322 306 268 261 284 291 279 258 256 249 252
331 331 38 360 134 248 267 273 259 228 236 217 253 261 253 50 316 12 191 307 254 267 264 271 229 121 39 24 350 343 351 347 345 352 316 237 232 263 292 309 267 251 279 139
321 304 285 318 298 260 237 241 259 246 302 311 4 8 357 113 123 273 176 255 268 261 186 256 236 106 41 10 14 1 360 2 357 4 16 25 31 15 18 351 11 10 52 82
231 226 258 244 180 268 242 202 229 225 197 268 273 324 356 132 329 254 230 234 235 264 231 224 76 90 29 42 17 3 9 4 8 8 15 16 19 17 13 5 42 73 71 81
262 205 237 237 186 245 277 326 351 328 306 316 327 311 277 158 210 230 239 237 258 252 219 168 96 76 68 43 29 10 8 355 357 10 12 18 21 19 23 26 27 92 101 85
268 254 254 231 251 299 334 317 307 303 325 307 301 267 242 203 234 224 241 223 238 230 20 85 109 59 54 40 19 15 7 352 352 3 2 2 14 25 25 28 44 66 86 86
248 240 243 271 282 285 315 302 295 288 287 283 230 256 253 222 223 207 216 238 236 57 82 117 90 71 55 34 24 14 354 354 348 5 357 348 8 25 70 51 56 65 84 96
249 244 262 276 280 282 290 285 284 303 255 254 267 244 241 296 245 243 241 342 80 110 118 97 79 68 66 12 16 350 2 1 353 5 347 329 315 229 213 156 145 120 112 113